Location: Unspecified
(40.7677°N, 0.0000°E)
Time: 09:25:25
(UTC+00:00)

HJS-7B - Visible Passes

Search period start: 04 April 2026 00:00
Search period end: 14 April 2026 00:00
Orbit: 1103 x 1104 km, 50.0° (Epoch: 29 March)

Date Brightness Start Highest point End Pass type
(mag) Time Alt. Az. Time Alt. Az. Time Alt. Az.
8 Apr ? 04:46:58 10° S 04:52:02 21° SE 04:57:07 10° E visible
9 Apr ? 04:02:30 10° SSE 04:05:43 14° ESE 04:08:57 10° E visible
11 Apr ? 04:18:08 10° S 04:24:10 30° SE 04:30:14 10° ENE visible
12 Apr ? 03:32:44 10° S 03:37:47 21° SE 03:42:49 10° E visible
13 Apr ? 02:48:18 10° SSE 02:51:27 13° ESE 02:54:36 10° E visible
13 Apr ? 04:35:56 10° SW 04:42:55 59° SE 04:49:55 10° ENE visible
